Showing default

FLOCK 4G 28, 62634

Orbit data source: Space-Track

FLOCK 4G 28, 62634 is a payload satellite owned by Planet (US) in SSO that was launched on Tue, 14 Jan 2025 UTC via an FALCON 9 launch vehicle from the Air Force Western Test Range (AFWTR). Payload-class satellites include a variety of spacecraft equipped with specific instruments for various scientific and technological missions. These include communications satellites like Starlink; space stations such as the ISS; scientific satellites like the Hubble; Earth observation satellites from companies like Planet Labs, Umbra, and HawkEye 360; GPS; miniature CubeSats for education and research; and military/defense satellites.

Loading next visibility...
Identifier
62634, 2025-009AB
Orbit
SSO
Country
Flag of USUS
Related business
Manufacturer
Planet
Mission
Partially operational Commercial Imaging
Bus & Motor
CUBESAT 3U, Unknown motor
Mass
5.7 kg wet, 5.7 kg dry
Launch date (UTC)
2025-01-14 (1 year ago)
Launch vehicle
FALCON 9
Launch site
Air Force Western Test Range (AFWTR)
Object type
Payload
Rocket body
Debris
Shape & HBR
Box + 2 Pan, 1.0 m
Radar Cross Section
0.072 m², Medium (>0.1 m² and < 1m²)

Expand to show TLE details & history
Last TLE update: 16 hours ago

TLE from 16 hours ago
0 FLOCK 4G 28
1 62634U 25009AB  26175.16221769  .00007865  00000-0  23460-3 0  9996
2 62634  97.4025 259.7376 0000204 257.9665 102.1555 15.34921133 80150
Epoch: 2026-06-24T03:53Z
TLE epoch observation values (Epoch: 2026-06-24T03:53:35.608Z)
Latitude
-0.00006°
Longitude
-70.98415°
Altitude
464.295 km
Speed
7.634 km/s
True Right ascension
17h 18m 57s
True Declination
0° 00' 00"
Sunlit
Object was in full shadow at epoch
Visualization orbit readout
Latitude
Unknown
Longitude
Unknown
Altitude
Unknown
Speed
Unknown
Apparent Right ascension
Unknown
Apparent Declination
Unknown
Sunlit
N/A
Visualization observer readout
Local Sidereal Time
06:50:35
Azimuth
Unknown
Elevation
Unknown
Doppler factor
Unknown
Orbital elements
Apogee altitude
458.24 km
Perigee altitude
457.961 km
Semi-major axis
6,836.238 km
Eccentricity
0.00002
Inclination
97.4025°
RAAN
259.7376°
Arg. of periapsis
257.9665°
True anomaly
102.15779°
Mean anomaly
102.1555°
Eccentric anomaly
102.15664°
Mean motion
3.83988 °/min
Orbital period
93.75 mins
BSTAR
0.0002346
Loading maneuver chart data...
Computing Atmospheric mass density...
Loading historical data...
Loading historical data...
Loading historical data...
Loading historical data...
Loading historical data...
Loading historical data...
Loading historical data...

Documentation

Showing up to 5 results
|